This demonstration page uses our WeatherBlox Daily Observations layout. Learn more.

Left ArrowRight Arrow

Hourly Observations for May 13, 2020

Temp ( °F °C ) Dew Point ( °F °C ) Humidity (%) Winds ( mph kmh ) Pressure ( in mb ) Visibility ( mi km ) Precip ( " mm )
12:56 am 00:56 Cloudy 47 8.3 42 5.6 83 83 S 22 35 30.00 1016 10 16 0.00 0.00
1:56 am 01:56 Cloudy 47 8.3 42 5.6 83 83 SSE 16 26 30.00 1016 10 16 0.00 0.00
2:56 am 02:56 Cloudy with Light Rain 45 7.2 43 6.1 93 93 SSE 14 22 29.98 1015 8 13 0.00 0.00
3:56 am 03:56 Cloudy 45 7.2 43 6.1 93 93 S 17 28 29.95 1014 10 16 0.00 0.00
4:56 am 04:56 Cloudy 45 7.2 43 6.1 93 93 SSE 16 26 29.93 1013 10 16 0.00 0.00
5:32 am 05:32 Cloudy 45 7 45 7 100 100 SSE 14 22 29.95 1014 10 16 0.00 0.00
5:56 am 05:56 Cloudy 45 7.2 44 6.7 97 97 SSE 14 22 29.92 1013 8 13 0.00 0.00
6:06 am 06:06 Cloudy with Light Rain 45 7 45 7 100 100 SSE 15 24 29.94 1014 4 6 0.00 0.00
6:56 am 06:56 Cloudy with Light Rain 45 7.2 44 6.7 97 97 SE 12 19 29.92 1013 4 6 0.00 0.00
7:56 am 07:56 Cloudy with Mist and Fog 45 7.2 45 7.2 100 100 SE 14 22 29.91 1013 5 8 0.00 0.00
8:56 am 08:56 Cloudy with Light Rain 46 7.8 45 7.2 96 96 SE 16 26 29.90 1013 9 14 0.00 0.00
9:56 am 09:56 Cloudy with Light Rain 46 7.8 45 7.2 96 96 SE 13 20 29.88 1012 10 16 0.00 0.00
10:56 am 10:56 Cloudy 47 8.3 46 7.8 97 97 SE 15 24 29.87 1011 10 16 0.00 0.00
11:07 am 11:07 Cloudy 46 8 45 7 93 93 SE 17 28 29.87 1012 10 16 0.00 0.00
11:56 am 11:56 Cloudy 48 8.9 46 7.8 93 93 SE 22 35 29.84 1011 10 16 0.00 0.00
12:56 pm 12:56 Cloudy 49 9.4 47 8.3 93 93 SSE 22 35 29.83 1010 10 16 0.00 0.00
1:56 pm 13:56 Cloudy 51 10.6 48 8.9 89 89 S 18 30 29.81 1009 10 16 0.00 0.00
2:56 pm 14:56 Cloudy 52 11.1 50 10 93 93 S 13 20 29.80 1009 10 16 0.00 0.00
3:56 pm 15:56 Cloudy 53 11.7 50 10 89 89 SSW 10 17 29.79 1009 10 16 0.00 0.00
4:56 pm 16:56 Cloudy 54 12.2 50 10 87 87 SSW 8 13 29.78 1009 10 16 0.00 0.00
5:56 pm 17:56 Cloudy 54 12.2 51 10.6 90 90 SW 3 6 29.78 1009 10 16 0.00 0.00
6:56 pm 18:56 Cloudy 55 12.8 51 10.6 87 87 Calm 29.78 1008 10 16 0.00 0.00
7:06 pm 19:06 Cloudy 55 13 52 11 88 88 Calm 29.75 1007 10 16 0.00 0.00
7:56 pm 19:56 Cloudy 55 12.8 52 11.1 90 90 ESE 7 11 29.76 1008 10 16 0.00 0.00
8:27 pm 20:27 Cloudy 54 12 52 11 94 94 E 6 9 29.77 1008 10 16 0.00 0.00
8:41 pm 20:41 Cloudy 54 12 52 11 94 94 E 5 7 29.77 1008 10 16 0.00 0.00
8:56 pm 20:56 Cloudy 54 12.2 52 11.1 93 93 E 5 7 29.79 1009 10 16 0.00 0.00
9:56 pm 21:56 Cloudy 52 11.1 51 10.6 97 97 NE 6 9 29.82 1010 9 14 0.00 0.00
10:23 pm 22:23 Cloudy with Mist and Fog 52 11 52 11 100 100 NE 7 11 29.82 1010 6 10 0.00 0.00
10:32 pm 22:32 Cloudy with Mist and Fog 52 11 52 11 100 100 NE 7 11 29.83 1010 5 8 0.00 0.00
10:56 pm 22:56 Cloudy with Mist and Fog 52 11.1 51 10.6 97 97 ENE 7 11 29.83 1010 5 8 0.00 0.00
11:08 pm 23:08 Cloudy with Mist and Fog 52 11 52 11 100 100 NE 8 13 29.83 1010 2 3 0.00 0.00
11:15 pm 23:15 Cloudy with Mist and Fog 52 11 52 11 100 100 NE 7 11 29.82 1010 1 1 0.00 0.00
11:31 pm 23:31 Cloudy with Fog 52 11 52 11 100 100 ENE 7 11 29.82 1010 1 1 0.00 0.00
11:56 pm 23:56 Cloudy with Fog 51 10.6 51 10.6 100 100 E 8 13 29.82 1010 1 1 0.00 0.00

Powered by AerisWeather